Key statistics
Satellite OBJECT K at a glance.
Uptime
443
Days in orbit
Revolutions
≈ 16.5
Per day
Orbit
SSO
Sun Synchronous Orbit
Inclination
97.4
Latest
Satellite identification and parameters
Extended collection of information and parameters for OBJECT K.
Object identification
Identified? True
Debris? False
Object name: OBJECT K
International designator: 2024-039K
Object number (NORAD): 59060
Object ID (CCSDS): 59060
Country: TO BE DETERMINED/UNKNOWN (TBD)
Current information (Y/N): Y
RCS size: SMALL
Orbital parameters
Decay date: May 17, 2025
Period: 87.299 minutes
Inclination: 97.3885 deg
SMA: 6518.791 km
Apoapsis: 148.496 km
Periapsis: 132.816 km
RAAN: 110.3756 deg
Eccentricy: 0.0012027
Argument of periapsis: 230.2391 deg
Mean anomaly: 129.7854 deg
Mean motion: 16.49499424 rev/day
Mean motion (dot): 0.15065791 rev/day2
B* drag term: 0.00017718 1/REarth
Two-line elements (TLE)
Creation date: May 13, 2025, 6:58 p.m.
Reference frame: TEME
Reference center: EARTH
Epoch: May 13, 2025, 7:51 a.m. UTC
TLE line 0: 0 OBJECT K
TLE line 1: 1 59060U 24039K 25133.32764041 .15065791 26402-5 17718-3 0 9999
TLE line 2: 2 59060 97.3885 110.3756 0012027 230.2391 129.7854 16.49499424 67738
Live tracking on map
Satellite OBJECT K has decayed and is no longer in orbit. No tracking available.
In-orbit conjunctions
Satellite OBJECT K has decayed and is no longer in orbit. No conjunctions available.
Associated space launch
Meteor-M satellites are a new generation of Russian meteorological satellites. Hitchhiking Payloads: SITRO-AIS 13-28, Zorkiy-2M-2, Pars 1 (Iran).
OBJECT K was lifted into orbit during the mission ‘Soyuz 2.1b/Fregat-M | Meteor-M No.2-4 & others’, on board a Soyuz 2.1b/Fregat-M space rocket.
The launch took place on Feb. 29, 2024, 5:43 a.m. from Cosmodrome Site 1S.
For more information about the launch, click the button.
Soyuz 2.1b/Fregat-M | Meteor-M No.2-4 & others
Agency: Russian Federal Space Agency (ROSCOSMOS)
Status: Launch Successful
Launch date: Feb. 29, 2024, 5:43 a.m. UTC
Rocket: Soyuz 2.1b/Fregat-M
Launch pad: Cosmodrome Site 1S
Location: Vostochny Cosmodrome, Siberia, Russian Federation
...
Latest news about this satellite
There are no fresh news available about this satellite. Check back as we update our databases every day.
Newsletter sign-up
Weekly statistics, charts and insights to help you stay on top of the space industry.
